KK7PZE-13 Weather Reports


Display with metric or nautical units.
time (UTC)temp
F
wind
direction
speed
MPH
gust
MPH
rain 1hr
in
rain 24hr
in
rain mn
in
humidity
%
barometer
mb
20260507123435 66 33 4.0 4.0 0.00 0.00 0.00 27 1013.6
20260507122435 64 23 4.0 5.0 0.00 0.00 0.00 29 1013.6
20260507121436 66 33 3.0 4.0 0.00 0.00 0.00 28 1013.6
20260507120435 66 15 4.0 6.0 0.00 0.00 0.00 28 1013.3
20260507115436 62 42 2.0 2.0 0.00 0.00 0.00 31 1013.5
20260507114438 62 59 0.0 1.0 0.00 0.00 0.00 32 1013.6
20260507113449 63 31 1.0 2.0 0.00 0.00 0.00 31 1013.7
20260507111540 62 34 2.0 3.0 0.00 0.00 0.00 31 1013.7
20260507111436 62 34 2.0 3.0 0.00 0.00 0.00 31 1013.7
20260507105435 64 31 2.0 2.0 0.00 0.00 0.00 30 1013.7
20260507104436 63 6 2.0 3.0 0.00 0.00 0.00 30 1013.8
20260507103435 63 60 1.0 2.0 0.00 0.00 0.00 30 1013.8
20260507102435 63 61 0.0 1.0 0.00 0.00 0.00 30 1014.0
20260507101436 63 26 1.0 2.0 0.00 0.00 0.00 30 1013.9
20260507100435 64 51 1.0 2.0 0.00 0.00 0.00 29 1014.1
20260507095438 64 2 4.0 5.0 0.00 0.00 0.00 28 1014.0
20260507094436 64 24 3.0 4.0 0.00 0.00 0.00 28 1013.9
20260507091435 63 37 1.0 1.0 0.00 0.00 0.00 30 1014.1
20260507090438 63 40 2.0 2.0 0.00 0.00 0.00 30 1014.4
20260507085438 63 46 2.0 3.0 0.00 0.00 0.00 30 1014.2
20260507084437 63 3 1.0 2.0 0.00 0.00 0.00 30 1014.4
20260507083436 62 58 1.0 2.0 0.00 0.00 0.00 30 1014.6
20260507082437 61 45 1.0 1.0 0.00 0.00 0.00 32 1014.5
20260507081508 60 37 1.0 2.0 0.00 0.00 0.00 32 1014.3
20260507081436 60 37 1.0 2.0 0.00 0.00 0.00 32 1014.3
20260507080435 60 54 1.0 1.0 0.00 0.00 0.00 33 1014.4
20260507075435 61 41 1.0 1.0 0.00 0.00 0.00 31 1014.6
20260507074436 61 55 0.0 1.0 0.00 0.00 0.00 31 1014.5
20260507073438 61 42 1.0 1.0 0.00 0.00 0.00 32 1014.5
20260507072435 61 55 0.0 1.0 0.00 0.00 0.00 32 1014.6
20260507071436 61 53 0.0 1.0 0.00 0.00 0.00 32 1014.7
20260507065435 61 29 1.0 1.0 0.00 0.00 0.00 32 1014.9
20260507064436 62 282 1.0 2.0 0.00 0.00 0.00 31 1014.7
20260507063435 62 39 0.0 1.0 0.00 0.00 0.00 31 1014.6
20260507062506 62 38 1.0 2.0 0.00 0.00 0.00 31 1014.4
20260507062435 62 38 1.0 2.0 0.00 0.00 0.00 31 1014.4
20260507061435 62 285 1.0 2.0 0.00 0.00 0.00 31 1014.5
20260507060435 62 36 1.0 1.0 0.00 0.00 0.00 31 1014.5
20260507054620 64 119 0.0 1.0 0.00 0.00 0.00 29 1014.3
20260507054436 64 119 0.0 1.0 0.00 0.00 0.00 29 1014.3
20260507052509 66 19 1.0 1.0 0.00 0.00 0.00 29 1014.4
20260507052435 66 19 1.0 1.0 0.00 0.00 0.00 29 1014.4
20260507051436 67 349 0.0 1.0 0.00 0.00 0.00 28 1014.6
20260507050436 66 297 1.0 2.0 0.00 0.00 0.00 28 1014.5
20260507045437 66 14 1.0 2.0 0.00 0.00 0.00 28 1014.4
20260507044438 67 20 1.0 2.0 0.00 0.00 0.00 28 1014.2
20260507042436 67 47 1.0 1.0 0.00 0.00 0.00 28 1014.1
20260507041436 67 0 2.0 2.0 0.00 0.00 0.00 28 1013.9
20260507040436 67 59 0.0 1.0 0.00 0.00 0.00 28 1013.8
20260507035600 68 276 1.0 2.0 0.00 0.00 0.00 28 1013.7
20260507035436 68 276 1.0 2.0 0.00 0.00 0.00 28 1013.7
20260507034437 68 16 1.0 2.0 0.00 0.00 0.00 27 1013.8
20260507033436 70 59 0.0 1.0 0.00 0.00 0.00 26 1013.8
20260507032436 71 270 1.0 1.0 0.00 0.00 0.00 25 1013.3
20260507031436 71 187 1.0 2.0 0.00 0.00 0.00 25 1013.6
20260507030435 71 190 0.0 1.0 0.00 0.00 0.00 25 1013.3
20260507024435 72 137 0.0 1.0 0.00 0.00 0.00 24 1013.1
20260507022436 74 168 2.0 2.0 0.00 0.00 0.00 23 1012.8
20260507020434 75 227 3.0 4.0 0.00 0.00 0.00 22 1012.8
20260507015435 76 79 1.0 1.0 0.00 0.00 0.00 21 1012.8
20260507014439 77 60 2.0 2.0 0.00 0.00 0.00 21 1012.6
20260507012438 78 214 6.0 6.0 0.00 0.00 0.00 20 1012.5
20260507011436 78 196 4.0 4.0 0.00 0.00 0.00 20 1012.4
20260507010434 78 81 3.0 4.0 0.00 0.00 0.00 20 1012.3
20260507004437 78 206 4.0 4.0 0.00 0.00 0.00 20 1012.4
20260507003434 79 230 6.0 8.0 0.00 0.00 0.00 19 1012.2
20260507002434 78 181 8.0 9.0 0.00 0.00 0.00 20 1012.3
20260507001436 78 126 2.0 3.0 0.00 0.00 0.00 20 1012.4
20260507000435 79 220 6.0 9.0 0.00 0.00 0.00 19 1012.2
20260506234438 79 225 10.0 10.0 0.00 0.00 0.00 19 1012.3
20260506233436 80 212 7.0 9.0 0.00 0.00 0.00 19 1012.6
20260506232442 79 232 2.0 3.0 0.00 0.00 0.00 20 1012.5
20260506230435 79 34 2.0 3.0 0.00 0.00 0.00 19 1012.6
20260506225434 79 159 4.0 6.0 0.00 0.00 0.00 19 1012.6
20260506224435 79 144 4.0 4.0 0.00 0.00 0.00 20 1012.6
20260506223434 79 84 0.0 1.0 0.00 0.00 0.00 19 1012.8
20260506222437 79 154 4.0 6.0 0.00 0.00 0.00 20 1013.1
20260506221436 78 237 9.0 11.0 0.00 0.00 0.00 20 1013.0
20260506220434 79 231 4.0 6.0 0.00 0.00 0.00 19 1013.2
20260506215434 80 330 6.0 8.0 0.00 0.00 0.00 19 1013.2
20260506214515 80 192 2.0 3.0 0.00 0.00 0.00 19 1013.4
20260506214435 80 192 2.0 3.0 0.00 0.00 0.00 19 1013.4
20260506213434 79 254 3.0 5.0 0.00 0.00 0.00 20 1013.7
20260506212435 79 249 4.0 5.0 0.00 0.00 0.00 20 1013.7
20260506211436 81 320 8.0 11.0 0.00 0.00 0.00 19 1013.8
20260506210706 79 96 0.0 1.0 0.00 0.00 0.00 20 1014.1
20260506210436 79 96 0.0 1.0 0.00 0.00 0.00 20 1014.1
20260506205435 79 177 3.0 4.0 0.00 0.00 0.00 20 1014.0
20260506204435 77 123 1.0 2.0 0.00 0.00 0.00 22 1014.1
20260506203434 78 280 2.0 3.0 0.00 0.00 0.00 22 1014.2
20260506202434 79 235 5.0 8.0 0.00 0.00 0.00 21 1014.3
20260506201435 79 283 7.0 8.0 0.00 0.00 0.00 21 1014.5
20260506200654 76 165 2.0 2.0 0.00 0.00 0.00 22 1014.6
20260506200434 76 165 2.0 2.0 0.00 0.00 0.00 22 1014.6
20260506195435 77 28 3.0 4.0 0.00 0.00 0.00 22 1014.6
20260506194705 76 246 4.0 4.0 0.00 0.00 0.00 23 1014.9
20260506194435 76 246 4.0 4.0 0.00 0.00 0.00 23 1014.9
20260506193434 76 235 2.0 3.0 0.00 0.00 0.00 23 1014.9
20260506192434 76 276 6.0 8.0 0.00 0.00 0.00 23 1014.9
20260506191439 75 46 2.0 3.0 0.00 0.00 0.00 23 1014.7
20260506190434 75 200 3.0 4.0 0.00 0.00 0.00 23 1015.0
20260506185434 74 108 4.0 5.0 0.00 0.00 0.00 24 1015.1
20260506184435 76 182 6.0 8.0 0.00 0.00 0.00 23 1015.2
20260506182434 74 198 3.0 4.0 0.00 0.00 0.00 24 1015.3
20260506181435 73 147 1.0 1.0 0.00 0.00 0.00 25 1015.5
20260506180434 74 203 2.0 3.0 0.00 0.00 0.00 24 1015.6
20260506175436 74 155 4.0 4.0 0.00 0.00 0.00 24 1015.6
20260506174436 73 274 4.0 4.0 0.00 0.00 0.00 25 1015.4
20260506173435 74 26 4.0 5.0 0.00 0.00 0.00 24 1015.5
20260506172734 75 273 1.0 3.0 0.00 0.00 0.00 24 1015.5
20260506172435 75 273 1.0 3.0 0.00 0.00 0.00 24 1015.5
20260506171436 75 62 0.0 1.0 0.00 0.00 0.00 24 1015.4
20260506170435 73 60 2.0 2.0 0.00 0.00 0.00 26 1015.6
20260506165716 73 88 0.0 1.0 0.00 0.00 0.00 26 1015.4
20260506165435 73 88 0.0 1.0 0.00 0.00 0.00 26 1015.4
20260506164436 73 98 0.0 1.0 0.00 0.00 0.00 26 1015.4
20260506163435 72 92 0.0 1.0 0.00 0.00 0.00 26 1015.4
20260506162435 69 90 0.0 0.0 0.00 0.00 0.00 29 1015.3
20260506161436 68 86 0.0 1.0 0.00 0.00 0.00 30 1015.3
20260506160435 68 116 1.0 1.0 0.00 0.00 0.00 30 1015.3
20260506155435 68 71 0.0 1.0 0.00 0.00 0.00 30 1015.4
20260506154436 68 84 1.0 1.0 0.00 0.00 0.00 30 1015.4
20260506153435 67 146 2.0 3.0 0.00 0.00 0.00 31 1015.4
20260506152435 67 53 2.0 2.0 0.00 0.00 0.00 32 1015.5
20260506151436 67 97 1.0 2.0 0.00 0.00 0.00 32 1015.3
20260506150435 66 112 3.0 4.0 0.00 0.00 0.00 32 1015.4
20260506145435 65 61 1.0 2.0 0.00 0.00 0.00 33 1015.4
20260506144437 64 49 1.0 1.0 0.00 0.00 0.00 34 1015.3
20260506143621 64 82 0.0 1.0 0.00 0.00 0.00 34 1015.2
20260506143435 64 82 0.0 1.0 0.00 0.00 0.00 34 1015.2
20260506142435 62 68 0.0 0.0 0.00 0.00 0.00 36 1015.2
20260506141743 62 62 0.0 1.0 0.00 0.00 0.00 37 1015.1
20260506141436 62 62 0.0 1.0 0.00 0.00 0.00 37 1015.1
20260506140435 63 71 0.0 1.0 0.00 0.00 0.00 35 1014.6
20260506135639 60 74 0.0 0.0 0.00 0.00 0.00 39 1014.6
20260506135435 60 74 0.0 0.0 0.00 0.00 0.00 39 1014.6
20260506134436 57 77 0.0 0.0 0.00 0.00 0.00 43 1014.5
20260506132435 54 64 0.0 0.0 0.00 0.00 0.00 48 1014.3
20260506131436 51 52 0.0 1.0 0.00 0.00 0.00 49 1014.3
20260506130435 50 43 1.0 1.0 0.00 0.00 0.00 51 1014.2
20260506125624 50 281 2.0 2.0 0.00 0.00 0.00 51 1013.9
20260506125435 50 281 2.0 2.0 0.00 0.00 0.00 51 1013.9
20260506124436 51 59 0.0 0.0 0.00 0.00 0.00 51 1013.8